Location: Ocean City
(38.3360°N, 75.0850°W)
Time: 03:19:18
(UTC-04:00)

AIST 2D - Visible Passes

Search period start: 23 May 2019 00:00
Search period end: 02 June 2019 00:00
Orbit: 458 x 471 km, 97.2° (Epoch: 22 May)

Date Brightness Start Highest point End Pass type
(mag) Time Alt. Az. Time Alt. Az. Time Alt. Az.
23 May ? 23:26:52 10° NNE 23:27:26 14° NE 23:27:26 14° NE visible
25 May ? 00:29:34 10° NNW 00:30:42 17° NNW 00:30:42 17° NNW visible
25 May ? 23:58:47 10° N 00:00:01 21° N 00:00:01 21° N visible
26 May ? 23:28:33 10° NNE 23:29:19 15° NE 23:29:19 15° NE visible
28 May ? 00:31:20 10° NNW 00:32:34 18° NNW 00:32:34 18° NNW visible
29 May ? 00:00:29 10° N 00:01:52 22° N 00:01:52 22° N visible
29 May ? 23:30:13 10° NNE 23:31:09 17° NE 23:31:09 17° NE visible
31 May ? 00:33:03 10° NNW 00:34:24 18° NNW 00:34:24 18° NNW visible
01 Jun ? 00:02:11 10° N 00:03:41 24° N 00:03:41 24° N visible
01 Jun ? 23:31:52 10° NNE 23:32:58 18° NE 23:32:58 18° NE visible
